EW5637 Weather Reports


Display with metric or nautical units.
time (UTC)temp
F
wind
direction
speed
MPH
gust
MPH
rain 1hr
in
rain 24hr
in
rain mn
in
humidity
%
barometer
mb
20260831111547 66 0 0.0 0.0 0.00 0.04 0.04 95 1020.7
20260831111042 66 0 0.0 0.0 0.00 0.04 0.04 95 1020.6
20260831110545 66 0 0.0 0.0 0.00 0.04 0.04 95 1020.6
20260831110056 66 0 0.0 0.0 0.00 0.04 0.04 95 1020.4
20260831105542 66 0 0.0 0.0 0.00 0.04 0.04 95 1020.3
20260831105042 66 0 0.0 0.0 0.00 0.04 0.04 95 1020.3
20260831104553 66 0 0.0 0.0 0.00 0.04 0.04 96 1020.1
20260831104042 66 0 0.0 0.0 0.00 0.04 0.04 95 1020.1
20260831103541 66 0 0.0 0.0 0.00 0.04 0.04 96 1020.2
20260831103103 66 0 0.0 0.0 0.00 0.04 0.04 95 1020.0
20260831102541 66 0 0.0 0.0 0.00 0.04 0.04 96 1019.9
20260831102041 66 0 0.0 0.0 0.00 0.04 0.04 95 1020.0
20260831101603 66 0 0.0 0.0 0.00 0.04 0.04 95 1019.9
20260831101041 66 0 0.0 0.0 0.00 0.04 0.04 95 1019.8
20260831100544 66 0 0.0 2.0 0.00 0.04 0.04 96 1019.8
20260831100056 66 0 0.0 2.0 0.00 0.04 0.04 95 1019.8
20260831095541 66 0 0.0 3.0 0.00 0.04 0.04 95 1019.8
20260831095041 66 40 1.0 3.0 0.00 0.04 0.04 95 1019.7
20260831094558 66 40 1.0 2.0 0.00 0.04 0.04 95 1019.7
20260831094040 66 0 0.0 2.0 0.00 0.04 0.04 95 1019.6
20260831093542 66 0 0.0 0.0 0.00 0.04 0.04 95 1019.7
20260831093051 66 0 0.0 0.0 0.00 0.04 0.04 95 1019.6
20260831092541 66 0 0.0 0.0 0.00 0.04 0.04 95 1019.6
20260831092045 66 0 0.0 3.0 0.00 0.04 0.04 95 1019.5
20260831091555 66 0 1.0 3.0 0.00 0.04 0.04 94 1019.5
20260831091042 66 40 2.0 3.0 0.00 0.04 0.04 94 1019.4
20260831090546 66 0 0.0 0.0 0.00 0.04 0.04 94 1019.3
20260831090106 66 0 0.0 0.0 0.00 0.04 0.04 94 1019.3
20260831085542 66 0 0.0 0.0 0.00 0.04 0.04 94 1019.3
20260831085042 66 0 0.0 0.0 0.00 0.04 0.04 94 1019.3
20260831084556 66 0 0.0 0.0 0.00 0.04 0.04 94 1019.3
20260831084041 66 0 0.0 0.0 0.00 0.04 0.04 93 1019.2
20260831083542 66 0 0.0 1.0 0.00 0.04 0.04 93 1019.3
20260831083059 67 0 0.0 1.0 0.00 0.04 0.04 94 1019.3
20260831082542 67 0 0.0 1.0 0.00 0.04 0.04 94 1019.3
20260831082042 67 0 0.0 0.0 0.00 0.04 0.04 94 1019.2
20260831081559 67 0 0.0 0.0 0.00 0.04 0.04 94 1019.2
20260831081042 67 0 0.0 0.0 0.00 0.04 0.04 94 1019.2
20260831080542 66 0 0.0 0.0 0.00 0.04 0.04 94 1019.2
20260831080058 66 0 0.0 2.0 0.00 0.04 0.04 93 1019.2
20260831075541 66 0 0.0 2.0 0.00 0.04 0.04 93 1019.3
20260831075041 67 0 0.0 0.0 0.00 0.04 0.04 93 1019.3
20260831074556 67 0 0.0 0.0 0.00 0.04 0.04 93 1019.2
20260831074045 68 0 0.0 0.0 0.00 0.04 0.04 93 1019.2
20260831073542 68 0 0.0 2.0 0.00 0.04 0.04 93 1019.1
20260831073058 68 0 0.0 2.0 0.00 0.04 0.04 93 1019.1
20260831072541 68 0 0.0 0.0 0.00 0.04 0.04 93 1019.1
20260831072041 68 0 0.0 0.0 0.00 0.04 0.04 93 1019.1
20260831071556 68 0 0.0 0.0 0.00 0.04 0.04 93 1019.1
20260831071040 69 0 0.0 0.0 0.00 0.04 0.04 93 1019.1
20260831070541 69 0 0.0 0.0 0.00 0.04 0.04 93 1018.8
20260831070058 69 0 0.0 0.0 0.00 0.04 0.04 93 1019.0
20260831065541 69 0 0.0 1.0 0.00 0.04 0.04 93 1019.2
20260831065043 69 0 0.0 1.0 0.00 0.04 0.04 93 1019.1
20260831064602 69 0 0.0 2.0 0.00 0.04 0.04 93 1019.3
20260831064042 70 0 0.0 2.0 0.00 0.04 0.04 93 1019.3
20260831063542 69 41 0.0 0.0 0.03 0.04 0.04 92 1019.3
20260831063054 69 0 0.0 0.0 0.04 0.04 0.04 92 1019.4
20260831062542 70 0 0.0 0.0 0.04 0.04 0.04 92 1019.4
20260831062043 70 0 0.0 0.0 0.04 0.04 0.04 91 1019.6
20260831061603 70 0 0.0 0.0 0.04 0.04 0.04 91 1019.6
20260831061044 70 0 0.0 0.0 0.04 0.04 0.04 91 1019.6
20260831060542 70 0 0.0 0.0 0.04 0.04 0.04 90 1019.6
20260831060058 71 0 0.0 2.0 0.04 0.04 0.04 90 1019.8
20260831055542 71 0 0.0 4.0 0.04 0.04 0.04 89 1019.8
20260831055042 71 41 2.0 5.0 0.04 0.04 0.04 89 1019.7
20260831054607 71 40 1.0 9.0 0.04 0.04 0.04 88 1019.9
20260831054042 71 42 2.0 9.0 0.04 0.04 0.04 88 1019.8
20260831053542 71 29 4.0 9.0 0.00 0.00 0.00 89 1020.0
20260831053057 70 5 2.0 6.0 0.00 0.00 0.00 90 1019.8
20260831052540 70 350 3.0 6.0 0.00 0.00 0.00 91 1019.9
20260831052043 70 26 3.0 6.0 0.00 0.00 0.00 91 1019.7
20260831051610 70 360 3.0 5.0 0.00 0.00 0.00 91 1019.6
20260831051042 70 350 1.0 5.0 0.00 0.00 0.00 92 1019.6
20260831050542 70 0 2.0 5.0 0.00 0.00 0.00 92 1019.6
20260831050104 70 347 3.0 5.0 0.00 0.00 0.00 92 1019.5
20260831045542 70 340 1.0 4.0 0.00 0.00 0.00 92 1019.5
20260831045044 70 0 2.0 4.0 0.00 0.00 0.00 92 1019.3
20260831044607 70 325 2.0 4.0 0.00 0.00 0.00 92 1019.5
20260831044041 71 225 0.0 2.0 0.00 0.00 0.00 92 1019.5
20260831043541 71 0 0.0 4.0 0.00 0.00 0.00 92 1019.5
20260831043054 70 0 0.0 6.0 0.00 0.00 0.00 92 1019.5
20260831042544 71 0 1.0 7.0 0.00 0.00 0.00 92 1019.7
20260831042041 71 194 3.0 7.0 0.00 0.00 0.00 93 1019.7
20260831041600 71 255 2.0 3.0 0.00 0.00 0.00 93 1019.5
20260831041042 71 252 0.0 2.0 0.00 0.00 0.00 92 1019.7
20260831040542 71 0 0.0 3.0 0.00 0.00 0.00 93 1019.6
20260831040054 71 0 0.0 3.0 0.00 0.00 0.00 93 1019.6
20260831035542 71 0 1.0 3.0 0.00 0.00 0.00 93 1019.7
20260831035041 71 0 0.0 3.0 0.00 0.00 0.00 93 1019.7
20260831034604 71 298 1.0 3.0 0.00 0.00 0.00 92 1019.9
20260831034040 72 0 0.0 0.0 0.00 0.00 0.00 93 1020.0
20260831033542 72 0 0.0 0.0 0.00 0.00 0.00 93 1020.1
20260831033052 71 0 0.0 0.0 0.00 0.00 0.00 93 1020.1
20260831032542 71 0 0.0 0.0 0.00 0.00 0.00 92 1020.1
20260831032043 72 0 0.0 0.0 0.00 0.00 0.00 92 1020.0
20260831031556 72 0 0.0 0.0 0.00 0.00 0.00 92 1020.0
20260831031042 72 0 0.0 0.0 0.00 0.00 0.00 92 1020.2
20260831030541 72 0 0.0 0.0 0.00 0.00 0.00 92 1020.2
20260831030055 72 0 0.0 0.0 0.00 0.00 0.00 92 1020.1
20260831025540 72 0 0.0 0.0 0.00 0.00 0.00 91 1020.2
20260831025041 72 0 0.0 0.0 0.00 0.00 0.00 91 1020.2
20260831024553 72 0 0.0 0.0 0.00 0.00 0.00 91 1020.2
20260831024041 73 0 0.0 0.0 0.00 0.00 0.00 91 1020.2
20260831023541 73 0 0.0 0.0 0.00 0.00 0.00 91 1020.1
20260831023103 73 0 0.0 0.0 0.00 0.00 0.00 91 1020.1
20260831022542 73 0 0.0 0.0 0.00 0.00 0.00 91 1020.1
20260831022042 73 0 0.0 0.0 0.00 0.00 0.00 90 1020.0
20260831021557 73 0 0.0 0.0 0.00 0.00 0.00 90 1020.1
20260831021042 73 0 0.0 2.0 0.00 0.00 0.00 90 1020.1
20260831020545 73 0 0.0 3.0 0.00 0.00 0.00 90 1020.1
20260831020059 73 0 0.0 3.0 0.00 0.00 0.00 91 1020.1
20260831015542 73 298 2.0 3.0 0.00 0.00 0.00 91 1020.1
20260831015042 73 298 2.0 3.0 0.00 0.00 0.00 91 1020.1
20260831014555 73 0 0.0 2.0 0.00 0.00 0.00 90 1020.1
20260831014041 73 0 0.0 2.0 0.00 0.00 0.00 91 1020.0
20260831013542 73 0 1.0 2.0 0.00 0.00 0.00 91 1020.1
20260831013109 73 298 1.0 2.0 0.00 0.00 0.00 91 1020.0
20260831012544 73 0 0.0 0.0 0.00 0.00 0.00 90 1020.0
20260831012041 73 0 0.0 0.0 0.00 0.00 0.00 90 1019.9
20260831011602 73 0 0.0 0.0 0.00 0.00 0.00 90 1020.0
20260831011044 73 0 0.0 0.0 0.00 0.00 0.00 90 1019.9
20260831010543 74 0 0.0 2.0 0.00 0.00 0.00 90 1019.9
20260831010058 74 0 0.0 3.0 0.00 0.00 0.00 90 1019.9
20260831005541 74 298 1.0 3.0 0.00 0.00 0.00 89 1019.9
20260831005041 74 297 0.0 2.0 0.00 0.00 0.00 89 1019.7
20260831004556 74 0 0.0 0.0 0.00 0.00 0.00 89 1019.6
20260831004248 74 0 0.0 0.0 0.00 0.00 0.00 88 1019.5
20260831003541 74 0 0.0 2.0 0.00 0.00 0.00 88 1019.4
20260831003106 74 0 0.0 2.0 0.00 0.00 0.00 89 1019.3
20260831002541 74 297 0.0 2.0 0.00 0.00 0.00 89 1019.2
20260831002045 74 0 0.0 1.0 0.00 0.00 0.00 88 1019.1
20260831001600 74 0 0.0 1.0 0.00 0.00 0.00 88 1019.1
20260831001043 75 0 0.0 3.0 0.00 0.00 0.00 87 1019.0
20260831000543 75 0 0.0 3.0 0.00 0.00 0.00 87 1018.8
20260831000059 75 297 2.0 3.0 0.00 0.00 0.00 87 1018.8
20260830235542 75 297 2.0 3.0 0.00 0.00 0.00 86 1018.8
20260830235046 76 0 0.0 0.0 0.00 0.00 0.00 85 1018.7
20260830234607 76 0 0.0 0.0 0.00 0.00 0.00 85 1018.6
20260830234042 76 0 0.0 0.0 0.00 0.00 0.00 85 1018.7
20260830233542 76 0 0.0 0.0 0.00 0.00 0.00 84 1018.7
20260830233100 77 0 0.0 0.0 0.00 0.00 0.00 84 1018.8
20260830232541 77 0 0.0 2.0 0.00 0.00 0.00 83 1018.8
20260830232042 78 0 0.0 2.0 0.00 0.00 0.00 82 1018.9
20260830231559 78 146 0.0 2.0 0.00 0.00 0.00 82 1018.8
20260830231041 78 0 0.0 3.0 0.00 0.00 0.00 82 1018.8
20260830230541 78 0 0.0 4.0 0.00 0.00 0.00 80 1018.9
20260830230056 79 146 1.0 4.0 0.00 0.00 0.00 79 1018.9
20260830225541 79 146 1.0 3.0 0.00 0.00 0.00 79 1018.9
20260830225038 80 148 0.0 5.0 0.00 0.00 0.00 78 1019.0
20260830224601 80 0 1.0 5.0 0.00 0.00 0.00 77 1019.0
20260830224040 80 164 3.0 5.0 0.00 0.00 0.00 77 1019.0
20260830223541 81 184 0.0 2.0 0.00 0.00 0.00 78 1019.0
20260830223109 81 0 0.0 2.0 0.00 0.00 0.00 78 1019.1
20260830222545 81 186 0.0 2.0 0.00 0.00 0.00 75 1019.0
20260830222041 81 0 0.0 3.0 0.00 0.00 0.00 75 1018.9
20260830221553 81 0 0.0 3.0 0.00 0.00 0.00 77 1018.9
20260830221042 81 186 1.0 4.0 0.00 0.00 0.00 74 1018.8
20260830220541 82 186 1.0 4.0 0.00 0.00 0.00 73 1018.8
20260830220056 82 190 1.0 4.0 0.00 0.00 0.00 72 1018.7
20260830215540 83 191 1.0 5.0 0.00 0.00 0.00 72 1018.8
20260830215042 83 178 0.0 7.0 0.00 0.00 0.00 73 1018.7
20260830214617 82 173 1.0 9.0 0.00 0.00 0.00 73 1018.6
20260830214043 82 170 3.0 9.0 0.00 0.00 0.00 72 1018.6
20260830213541 82 157 4.0 7.0 0.00 0.00 0.00 73 1018.6
20260830213059 82 208 3.0 7.0 0.00 0.00 0.00 72 1018.8
20260830212543 82 161 3.0 8.0 0.00 0.00 0.00 71 1018.7
20260830212038 82 158 2.0 9.0 0.00 0.00 0.00 74 1018.6
20260830211554 82 207 3.0 12.0 0.00 0.00 0.00 73 1018.6
20260830211042 82 143 5.0 12.0 0.00 0.00 0.00 71 1018.6
20260830210542 83 215 2.0 10.0 0.00 0.00 0.00 73 1018.4
20260830210109 83 146 5.0 11.0 0.00 0.00 0.00 71 1018.4
20260830205541 83 132 3.0 11.0 0.00 0.00 0.00 71 1018.5
20260830205041 84 128 5.0 12.0 0.00 0.00 0.00 70 1018.6
20260830204603 84 177 4.0 12.0 0.00 0.00 0.00 73 1018.7
20260830204051 84 205 2.0 10.0 0.00 0.00 0.00 68 1018.9
20260830203541 84 165 4.0 10.0 0.00 0.00 0.00 64 1018.8
20260830203103 85 161 4.0 12.0 0.00 0.00 0.00 66 1018.9
20260830202542 85 212 5.0 12.0 0.00 0.00 0.00 62 1018.8
20260830202042 85 269 1.0 7.0 0.00 0.00 0.00 65 1018.8
20260830201601 85 242 2.0 7.0 0.00 0.00 0.00 66 1018.9
20260830201042 84 175 3.0 6.0 0.00 0.00 0.00 68 1018.9
20260830200543 84 207 2.0 7.0 0.00 0.00 0.00 68 1019.0
20260830200056 84 254 1.0 8.0 0.00 0.00 0.00 68 1018.9
20260830195541 84 288 3.0 9.0 0.00 0.00 0.00 67 1018.8
20260830195041 84 240 3.0 9.0 0.00 0.00 0.00 65 1018.8
20260830194555 84 290 4.0 16.0 0.00 0.00 0.00 64 1018.8
20260830194041 84 249 1.0 16.0 0.00 0.00 0.00 66 1018.9
20260830193542 84 250 1.0 11.0 0.00 0.00 0.00 66 1019.0
20260830193102 84 252 4.0 11.0 0.00 0.00 0.00 63 1019.0
20260830192542 84 244 2.0 9.0 0.00 0.00 0.00 66 1019.1
20260830192041 84 279 2.0 8.0 0.00 0.00 0.00 63 1019.3
20260830191555 85 259 1.0 4.0 0.00 0.00 0.00 66 1019.4
20260830191041 84 233 1.0 7.0 0.00 0.00 0.00 69 1019.5
20260830190541 84 259 3.0 7.0 0.00 0.00 0.00 67 1019.7
20260830190125 84 257 2.0 7.0 0.00 0.00 0.00 70 1019.7
20260830185541 84 214 2.0 10.0 0.00 0.00 0.00 69 1019.8
20260830185040 84 209 5.0 12.0 0.00 0.00 0.00 68 1019.9
20260830184614 84 264 2.0 12.0 0.00 0.00 0.00 70 1020.0
20260830184040 83 194 5.0 10.0 0.00 0.00 0.00 71 1020.1
20260830183541 83 285 2.0 10.0 0.00 0.00 0.00 74 1020.3
20260830183103 82 292 5.0 10.0 0.00 0.00 0.00 70 1020.3
20260830182542 83 302 4.0 9.0 0.00 0.00 0.00 72 1020.4
20260830182042 83 290 3.0 8.0 0.00 0.00 0.00 70 1020.4
20260830181557 83 243 3.0 10.0 0.00 0.00 0.00 69 1020.4
20260830181042 83 242 3.0 10.0 0.00 0.00 0.00 72 1020.4
20260830180542 83 284 2.0 10.0 0.00 0.00 0.00 72 1020.5
20260830180108 83 339 2.0 5.0 0.00 0.00 0.00 77 1020.5
20260830175541 82 313 0.0 4.0 0.00 0.00 0.00 75 1020.6
20260830175042 81 96 1.0 8.0 0.00 0.00 0.00 76 1020.5
20260830174608 81 125 5.0 9.0 0.00 0.00 0.00 77 1020.7
20260830174044 81 117 4.0 9.0 0.00 0.00 0.00 76 1020.7
20260830173541 81 162 3.0 9.0 0.00 0.00 0.00 76 1020.7
20260830173055 81 143 3.0 10.0 0.00 0.00 0.00 77 1020.7
20260830172541 81 123 3.0 10.0 0.00 0.00 0.00 77 1020.7
20260830172041 81 140 4.0 10.0 0.00 0.00 0.00 78 1020.7
20260830171557 80 107 3.0 10.0 0.00 0.00 0.00 80 1020.7
20260830171042 80 171 4.0 10.0 0.00 0.00 0.00 77 1020.8
20260830170541 80 193 3.0 10.0 0.00 0.00 0.00 78 1021.0
20260830170107 80 145 3.0 9.0 0.00 0.00 0.00 78 1021.0
20260830165544 80 123 4.0 10.0 0.00 0.00 0.00 77 1021.1
20260830165043 80 223 3.0 11.0 0.00 0.00 0.00 79 1021.0
20260830164609 79 175 4.0 11.0 0.00 0.00 0.00 79 1021.0
20260830164038 79 0 2.0 6.0 0.00 0.00 0.00 79 1021.1
20260830163542 79 0 2.0 10.0 0.00 0.00 0.00 78 1021.1
20260830163104 79 214 2.0 10.0 0.00 0.00 0.00 79 1021.2
20260830162542 79 138 5.0 9.0 0.00 0.00 0.00 78 1021.1
20260830162041 79 114 4.0 10.0 0.00 0.00 0.00 79 1021.1
20260830161556 79 202 4.0 11.0 0.00 0.00 0.00 78 1021.3
20260830161041 78 153 6.0 11.0 0.00 0.00 0.00 80 1021.3
20260830160541 78 126 5.0 14.0 0.00 0.00 0.00 80 1021.4
20260830160055 78 154 6.0 14.0 0.00 0.00 0.00 82 1021.3
20260830155541 77 142 5.0 11.0 0.00 0.00 0.00 82 1021.3
20260830155042 77 150 3.0 8.0 0.00 0.00 0.00 82 1021.5
20260830154557 77 204 2.0 7.0 0.00 0.00 0.00 83 1021.5
20260830154044 76 205 1.0 7.0 0.00 0.00 0.00 84 1021.6
20260830153541 76 138 3.0 7.0 0.00 0.00 0.00 84 1021.6
20260830153100 76 140 1.0 6.0 0.00 0.00 0.00 85 1021.7
20260830152541 75 126 1.0 4.0 0.00 0.00 0.00 84 1021.6
20260830152041 75 115 2.0 4.0 0.00 0.00 0.00 85 1021.7
20260830151554 75 104 2.0 4.0 0.00 0.00 0.00 85 1021.6
20260830151041 75 112 2.0 4.0 0.00 0.00 0.00 84 1021.6
20260830150541 75 111 2.0 4.0 0.00 0.00 0.00 84 1021.7
20260830150107 74 0 0.0 2.0 0.00 0.00 0.00 85 1021.6
20260830145541 74 0 0.0 2.0 0.00 0.00 0.00 84 1021.6
20260830145041 74 0 0.0 2.0 0.00 0.00 0.00 84 1021.6
20260830144601 74 0 0.0 1.0 0.00 0.00 0.00 84 1021.6
20260830144041 73 0 0.0 2.0 0.00 0.00 0.00 84 1021.8
20260830143543 73 0 0.0 2.0 0.00 0.00 0.00 85 1021.6
20260830143105 73 0 0.0 3.0 0.00 0.00 0.00 85 1021.7
20260830142544 73 0 0.0 3.0 0.00 0.00 0.00 85 1021.5
20260830142041 73 0 0.0 3.0 0.00 0.00 0.00 85 1021.5
20260830141556 73 0 1.0 4.0 0.00 0.00 0.00 85 1021.5
20260830141041 72 147 0.0 4.0 0.00 0.00 0.00 85 1021.5
20260830140541 72 149 2.0 7.0 0.00 0.00 0.00 84 1021.5
20260830140057 72 141 2.0 7.0 0.00 0.00 0.00 85 1021.5
20260830135542 72 136 0.0 4.0 0.00 0.00 0.00 85 1021.4
20260830135042 72 135 1.0 4.0 0.00 0.00 0.00 84 1021.5
20260830134601 71 136 2.0 4.0 0.00 0.00 0.00 84 1021.6
20260830134042 71 0 1.0 4.0 0.00 0.00 0.00 84 1021.6
20260830133541 71 122 2.0 4.0 0.00 0.00 0.00 84 1021.7
20260830133055 70 0 0.0 4.0 0.00 0.00 0.00 86 1021.8
20260830132540 70 0 1.0 4.0 0.00 0.00 0.00 83 1021.8
20260830132041 70 132 2.0 4.0 0.00 0.00 0.00 84 1021.9
20260830131554 70 107 0.0 1.0 0.00 0.00 0.00 85 1021.9
20260830131042 69 0 0.0 1.0 0.00 0.00 0.00 84 1022.1
20260830130542 69 0 0.0 1.0 0.00 0.00 0.00 85 1022.1
20260830130104 68 0 0.0 1.0 0.00 0.00 0.00 85 1022.1
20260830125542 68 0 0.0 1.0 0.00 0.00 0.00 84 1022.3
20260830125041 68 0 0.0 1.0 0.00 0.00 0.00 85 1022.4
20260830124602 67 0 0.0 0.0 0.00 0.00 0.00 86 1022.4
20260830124041 67 0 0.0 0.0 0.00 0.00 0.00 86 1022.4
20260830123541 66 0 0.0 1.0 0.00 0.00 0.00 88 1022.4
20260830123056 65 0 0.0 1.0 0.00 0.00 0.00 88 1022.4
20260830122543 65 0 0.0 2.0 0.00 0.00 0.00 90 1022.4
20260830122042 64 0 0.0 2.0 0.00 0.00 0.00 92 1022.4
20260830121554 64 0 0.0 2.0 0.00 0.00 0.00 93 1022.5
20260830121042 63 0 0.0 1.0 0.00 0.00 0.00 95 1022.4
20260830120541 63 0 0.0 2.0 0.00 0.00 0.00 95 1022.4
20260830120056 62 0 0.0 2.0 0.00 0.00 0.00 95 1022.4
20260830115541 62 144 0.0 2.0 0.00 0.00 0.00 95 1022.4
20260830115043 61 0 0.0 0.0 0.00 0.00 0.00 95 1022.4
20260830114601 61 0 0.0 0.0 0.00 0.00 0.00 95 1022.3
20260830114040 60 0 0.0 0.0 0.00 0.00 0.00 95 1022.2
20260830113542 59 0 0.0 2.0 0.00 0.00 0.00 95 1022.2
20260830113105 59 0 0.0 2.0 0.00 0.00 0.00 95 1022.2
20260830112542 59 0 1.0 2.0 0.00 0.00 0.00 94 1022.4
20260830112040 58 0 0.0 0.0 0.00 0.00 0.00 94 1022.3